Weather Roundup
Issued by NWS Springfield, MO

Home | Current Version | Previous Version | Text Only | Print | Product List | Glossary On
Versions: 1 2 3 4 5 6 7 8 9 10 11 12 13 14 15 16 17 18 19 20 21 22 23 24 25 26 27 28 29 30 31 32 33 34 35 36 37 38 39 40 41 42 43 44 45 46 47 48 49 50
000
NZUS99 KSGF 261807
HRRSGF

HOURLY WEATHER
NATIONAL WEATHER SERVICE SPRINGFIELD MO
1200 PM CST FRI DEC 26 2014

......SGF CWA......

CITY           SKY/WX    TMP DP  RH WIND       PRES   REMARKS
SPRINGFIELD    PTSUNNY   54  43  66 S17G25    30.00F
6HR MIN TEMP:  41; 6HR MAX TEMP:  56;

JOPLIN         CLOUDY    58  46  64 SW18      29.96F
6HR MIN TEMP:  46; 6HR MAX TEMP:  59;

WEST PLAINS    PTSUNNY   50  42  74 S15       30.11F
6HR MIN TEMP:  36; 6HR MAX TEMP:  50;

ROLLA          FAIR      54  42  64 S15       30.02F
6HR MIN TEMP:  40; 6HR MAX TEMP:  54;

OSAGE BEACH    PTSUNNY   61  43  51 S18G24    29.99F
BRANSON        PTSUNNY   54  45  71 SE17G24   30.04F

......SURROUNDING SGF CWA......

CITY           SKY/WX    TMP DP  RH WIND       PRES   REMARKS
CHANUTE        CLOUDY    55  45  68 SW21G26   29.92F
PARSONS        CLOUDY    57  46  66 S17G23    29.93F
COFFEYVILLE    CLOUDY    57  46  66 S17G25    29.92F
EMPORIA        PTSUNNY   43  33  68 NW6       29.93S
GROVE OK       CLOUDY    61  46  59 S16       29.98F
ROGERS AR      CLOUDY    56  46  69 S20       30.00F
SILOAM SPRINGS CLOUDY    55  43  62 S14G23    30.00F
HARRISON AR    PTSUNNY   51  45  79 S17G26    30.05F
NEAR YELLVILLE CLOUDY    52  43  71 S9        30.10F

......KANSAS AND MISSOURI......

CITY           SKY/WX    TMP DP  RH WIND       PRES   REMARKS
KANSAS CTY INT CLOUDY    49  40  71 W7        29.93F
DOWNTOWN KC    PTSUNNY   54  42  64 SW13      29.93F
COLUMBIA       FAIR      57  43  59 SW12      29.99F
SEDALIA        FAIR      56  43  61 SW13G22   29.97F
ST JOSEPH      CLOUDY    35  32  88 N6        29.97F WCI  30
ST LOUIS       FAIR      57  41  55 SW14      30.05F
SPIRIT OF STL  FAIR      57  42  57 SW10G21   30.04F
KIRKSVILLE     FAIR      51  41  68 SW10      29.96F
WICHITA        CLOUDY    39  32  76 N12       29.93F WCI  32
TOPEKA         CLOUDY    38  33  82 N6        29.96F WCI  33
OLATHE         CLOUDY    52  43  71 SW12      29.91F

......TENNESSEE......

CITY           SKY/WX    TMP DP  RH WIND       PRES   REMARKS
MEMPHIS        CLOUDY    54  37  52 SE14G20   30.21F
NASHVILLE      PTSUNNY   53  36  52 S12       30.26F

......ARKANSAS.......

CITY           SKY/WX    TMP DP  RH WIND       PRES   REMARKS
FAYETTEVILLE   CLOUDY    53  46  77 S18G25    30.01F
FT SMITH       CLOUDY    55  46  71 SE8G17    30.04F
LITTLE ROCK    CLOUDY    52  39  61 SE6       30.15F

......OKLAHOMA.......

CITY           SKY/WX    TMP DP  RH WIND       PRES   REMARKS
TULSA          PTSUNNY   60  49  66 S21G29    29.91F
PONCA CITY     CLOUDY    54  44  69 S13       29.90F
MCALESTER      CLOUDY    54  49  83 S8G16     29.97F
OKLAHOMA CITY  PTSUNNY   61  46  57 S22       29.89F

......IOWA............

CITY           SKY/WX    TMP DP  RH WIND       PRES   REMARKS
DES MOINES     CLOUDY    33  30  88 N8        29.97F FOG     WCI  26
QUAD CITIES    FAIR      49  36  61 SW13      29.97F

......ILLINOIS........

CITY           SKY/WX    TMP DP  RH WIND       PRES   REMARKS
QUINCY         FAIR      52  41  66 SW13      29.99F
CHICAGO        PTSUNNY   46  36  68 SW13G20   30.00F



USA.gov is the U.S. government's official web portal to all federal, state and local government web resources and services.